| time (UTC) | temp F | wind direction | speed MPH | gust MPH | rain 1hr in | rain 24hr in | rain mn in | humidity % | barometer mb |
| 20260503200233 | 56 | 249 | 8.0 | 17.0 | 0.00 | 0.00 | 0.00 | 58 | 1005.0 |
| 20260503194813 | 57 | 213 | 9.0 | 22.0 | 0.00 | 0.00 | 0.00 | 55 | 1005.1 |
| 20260503194619 | 58 | 279 | 9.0 | 22.0 | 0.00 | 0.00 | 0.00 | 53 | 1004.7 |
| 20260503193815 | 59 | 248 | 9.0 | 21.0 | 0.00 | 0.00 | 0.00 | 52 | 1004.8 |
| 20260503193311 | 60 | 234 | 9.0 | 19.0 | 0.00 | 0.00 | 0.00 | 50 | 1004.9 |
| 20260503193115 | 61 | 218 | 8.0 | 19.0 | 0.00 | 0.00 | 0.00 | 51 | 1005.1 |
| 20260503192312 | 60 | 272 | 8.0 | 22.0 | 0.00 | 0.00 | 0.00 | 51 | 1005.1 |
| 20260503191810 | 61 | 213 | 8.0 | 22.0 | 0.00 | 0.00 | 0.00 | 51 | 1005.1 |
| 20260503191313 | 61 | 230 | 8.0 | 18.0 | 0.00 | 0.00 | 0.00 | 51 | 1005.3 |
| 20260503190809 | 60 | 205 | 9.0 | 16.0 | 0.00 | 0.00 | 0.00 | 51 | 1005.3 |
| 20260503190306 | 60 | 191 | 7.0 | 16.0 | 0.00 | 0.00 | 0.00 | 51 | 1005.3 |
| 20260503185805 | 60 | 179 | 6.0 | 16.0 | 0.00 | 0.00 | 0.00 | 53 | 1005.3 |
| 20260503185610 | 61 | 245 | 6.0 | 16.0 | 0.00 | 0.00 | 0.00 | 51 | 1005.3 |
| 20260503185112 | 61 | 166 | 7.0 | 17.0 | 0.00 | 0.00 | 0.00 | 51 | 1005.3 |
| 20260503184617 | 61 | 265 | 8.0 | 17.0 | 0.00 | 0.00 | 0.00 | 52 | 1005.4 |
| 20260503183802 | 61 | 184 | 8.0 | 14.0 | 0.00 | 0.00 | 0.00 | 50 | 1005.4 |
| 20260503183302 | 61 | 280 | 8.0 | 18.0 | 0.00 | 0.00 | 0.00 | 50 | 1005.4 |
| 20260503182803 | 61 | 265 | 8.0 | 18.0 | 0.00 | 0.00 | 0.00 | 50 | 1005.5 |
| 20260503182301 | 61 | 214 | 8.0 | 18.0 | 0.00 | 0.00 | 0.00 | 51 | 1005.5 |
| 20260503182109 | 60 | 193 | 7.0 | 18.0 | 0.00 | 0.00 | 0.00 | 50 | 1005.5 |
| 20260503181606 | 60 | 246 | 6.0 | 13.0 | 0.00 | 0.00 | 0.00 | 50 | 1005.6 |
| 20260503180759 | 60 | 254 | 8.0 | 17.0 | 0.00 | 0.00 | 0.00 | 49 | 1005.6 |
| 20260503180300 | 60 | 260 | 8.0 | 17.0 | 0.00 | 0.00 | 0.00 | 50 | 1005.6 |
| 20260503175802 | 60 | 277 | 6.0 | 17.0 | 0.00 | 0.00 | 0.00 | 50 | 1005.8 |
| 20260503175256 | 60 | 196 | 6.0 | 14.0 | 0.00 | 0.00 | 0.00 | 50 | 1005.8 |
| 20260503174756 | 60 | 279 | 7.0 | 14.0 | 0.00 | 0.00 | 0.00 | 51 | 1005.8 |
| 20260503174254 | 60 | 267 | 7.0 | 14.0 | 0.00 | 0.00 | 0.00 | 51 | 1005.9 |
| 20260503174105 | 59 | 290 | 7.0 | 14.0 | 0.00 | 0.00 | 0.00 | 53 | 1005.9 |
| 20260503173253 | 59 | 231 | 6.0 | 14.0 | 0.00 | 0.00 | 0.00 | 52 | 1005.8 |
| 20260503173104 | 59 | 250 | 6.0 | 14.0 | 0.00 | 0.00 | 0.00 | 53 | 1006.1 |
| 20260503172252 | 58 | 230 | 6.0 | 12.0 | 0.00 | 0.00 | 0.00 | 55 | 1006.1 |
| 20260503171752 | 58 | 215 | 6.0 | 14.0 | 0.00 | 0.00 | 0.00 | 54 | 1006.1 |
| 20260503171250 | 58 | 209 | 6.0 | 14.0 | 0.00 | 0.00 | 0.00 | 54 | 1006.6 |
| 20260503170750 | 58 | 254 | 6.0 | 13.0 | 0.00 | 0.00 | 0.00 | 55 | 1006.6 |
| 20260503170258 | 58 | 278 | 5.0 | 13.0 | 0.00 | 0.00 | 0.00 | 53 | 1006.6 |
| 20260503160205 | 52 | 250 | 4.0 | 8.0 | 0.00 | 0.00 | 0.00 | 58 | 1006.5 |
| 20260503150142 | 48 | 190 | 5.0 | 9.0 | 0.00 | 0.00 | 0.00 | 69 | 1006.6 |
| 20260503131030 | 47 | 265 | 4.0 | 11.0 | 0.00 | 0.00 | 0.00 | 63 | 1007.7 |
| 20260503130820 | 47 | 221 | 4.0 | 11.0 | 0.00 | 0.00 | 0.00 | 63 | 1007.7 |
| 20260503110559 | 35 | 116 | 0.0 | 1.0 | 0.00 | 0.00 | 0.00 | 84 | 1006.9 |
| 20260503110109 | 34 | 116 | 0.0 | 2.0 | 0.00 | 0.00 | 0.00 | 85 | 1006.9 |
| 20260503100236 | 32 | 127 | 0.0 | 0.0 | 0.00 | 0.00 | 0.00 | 83 | 1006.7 |
| 20260503090112 | 34 | 127 | 1.0 | 4.0 | 0.00 | 0.00 | 0.00 | 75 | 1007.6 |
| 20260503080950 | 36 | 162 | 1.0 | 4.0 | 0.00 | 0.00 | 0.00 | 71 | 1008.2 |
| 20260503080411 | 36 | 187 | 1.0 | 5.0 | 0.00 | 0.00 | 0.00 | 71 | 1008.2 |
| 20260503072850 | 35 | 192 | 2.0 | 5.0 | 0.00 | 0.00 | 0.00 | 73 | 1008.4 |
| 20260503072351 | 35 | 200 | 2.0 | 6.0 | 0.00 | 0.00 | 0.00 | 74 | 1008.3 |
| 20260503072145 | 35 | 167 | 1.0 | 6.0 | 0.00 | 0.00 | 0.00 | 74 | 1008.3 |
| 20260503071338 | 34 | 140 | 1.0 | 5.0 | 0.00 | 0.00 | 0.00 | 74 | 1008.6 |
| 20260503070835 | 34 | 175 | 1.0 | 5.0 | 0.00 | 0.00 | 0.00 | 74 | 1008.6 |
| 20260503070552 | 34 | 155 | 1.0 | 2.0 | 0.00 | 0.00 | 0.00 | 74 | 1008.6 |
| 20260503054455 | 33 | 132 | 0.0 | 0.0 | 0.00 | 0.00 | 0.00 | 76 | 1009.6 |
| 20260503053953 | 33 | 132 | 0.0 | 1.0 | 0.00 | 0.00 | 0.00 | 76 | 1009.6 |
| 20260503053441 | 33 | 132 | 0.0 | 1.0 | 0.00 | 0.00 | 0.00 | 75 | 1009.6 |
| 20260503052928 | 33 | 131 | 0.0 | 2.0 | 0.00 | 0.00 | 0.00 | 75 | 1009.7 |
| 20260503052917 | 33 | 131 | 0.0 | 2.0 | 0.00 | 0.00 | 0.00 | 75 | 1009.7 |
| 20260503051845 | 34 | 131 | 0.0 | 2.0 | 0.00 | 0.00 | 0.00 | 75 | 1009.7 |
| 20260503051259 | 34 | 131 | 0.0 | 1.0 | 0.00 | 0.00 | 0.00 | 75 | 1010.0 |
| 20260503050800 | 34 | 131 | 0.0 | 1.0 | 0.00 | 0.00 | 0.00 | 74 | 1010.0 |
| 20260503050528 | 34 | 131 | 0.0 | 0.0 | 0.00 | 0.00 | 0.00 | 74 | 1010.0 |
| 20260503045743 | 34 | 131 | 0.0 | 2.0 | 0.00 | 0.00 | 0.00 | 74 | 1010.1 |
| 20260503045159 | 34 | 131 | 0.0 | 4.0 | 0.00 | 0.00 | 0.00 | 74 | 1010.1 |
| 20260503044656 | 34 | 131 | 0.0 | 4.0 | 0.00 | 0.00 | 0.00 | 75 | 1010.1 |
| 20260503044151 | 34 | 122 | 0.0 | 0.0 | 0.00 | 0.00 | 0.00 | 74 | 1010.3 |
| 20260503043647 | 34 | 122 | 0.0 | 0.0 | 0.00 | 0.00 | 0.00 | 74 | 1010.3 |
| 20260503043149 | 34 | 122 | 0.0 | 0.0 | 0.00 | 0.00 | 0.00 | 74 | 1010.4 |
| 20260503042640 | 34 | 122 | 0.0 | 0.0 | 0.00 | 0.00 | 0.00 | 74 | 1010.5 |
| 20260503042101 | 35 | 127 | 0.0 | 0.0 | 0.00 | 0.00 | 0.00 | 73 | 1010.5 |
| 20260503041556 | 35 | 127 | 0.0 | 2.0 | 0.00 | 0.00 | 0.00 | 72 | 1010.5 |
| 20260503041057 | 35 | 149 | 1.0 | 2.0 | 0.00 | 0.00 | 0.00 | 71 | 1010.7 |
| 20260503040549 | 35 | 149 | 1.0 | 2.0 | 0.00 | 0.00 | 0.00 | 70 | 1010.7 |
| 20260503040100 | 36 | 149 | 1.0 | 2.0 | 0.00 | 0.00 | 0.00 | 70 | 1010.8 |
| 20260503035545 | 36 | 149 | 0.0 | 2.0 | 0.00 | 0.00 | 0.00 | 69 | 1010.8 |
| 20260503035044 | 36 | 149 | 0.0 | 2.0 | 0.00 | 0.00 | 0.00 | 69 | 1010.8 |
| 20260503034514 | 35 | 149 | 1.0 | 2.0 | 0.00 | 0.00 | 0.00 | 70 | 1010.8 |
| 20260503033958 | 35 | 146 | 1.0 | 5.0 | 0.00 | 0.00 | 0.00 | 70 | 1010.8 |
| 20260503033449 | 35 | 146 | 1.0 | 5.0 | 0.00 | 0.00 | 0.00 | 70 | 1010.8 |
| 20260503032948 | 36 | 131 | 1.0 | 2.0 | 0.00 | 0.00 | 0.00 | 71 | 1010.9 |
| 20260503032449 | 36 | 131 | 1.0 | 2.0 | 0.00 | 0.00 | 0.00 | 70 | 1010.9 |
| 20260503031950 | 36 | 160 | 1.0 | 2.0 | 0.00 | 0.00 | 0.00 | 70 | 1011.0 |
| 20260503031848 | 35 | 169 | 1.0 | 2.0 | 0.00 | 0.00 | 0.00 | 71 | 1010.9 |
| 20260503031844 | 36 | 167 | 1.0 | 2.0 | 0.00 | 0.00 | 0.00 | 70 | 1010.9 |
| 20260503030444 | 35 | 175 | 0.0 | 2.0 | 0.00 | 0.00 | 0.00 | 72 | 1010.9 |
| 20260503030151 | 35 | 175 | 1.0 | 4.0 | 0.00 | 0.00 | 0.00 | 72 | 1010.8 |
| 20260503025654 | 34 | 185 | 1.0 | 4.0 | 0.00 | 0.00 | 0.00 | 73 | 1010.8 |
| 20260503024854 | 34 | 186 | 0.0 | 4.0 | 0.00 | 0.00 | 0.00 | 74 | 1010.8 |
| 20260503024641 | 34 | 296 | 0.0 | 0.0 | 0.00 | 0.00 | 0.00 | 75 | 1010.8 |
| 20260503023848 | 35 | 296 | 0.0 | 0.0 | 0.00 | 0.00 | 0.00 | 75 | 1010.9 |
| 20260503023309 | 35 | 296 | 0.0 | 0.0 | 0.00 | 0.00 | 0.00 | 75 | 1010.9 |
| 20260503022806 | 35 | 296 | 0.0 | 0.0 | 0.00 | 0.00 | 0.00 | 74 | 1011.0 |
| 20260503022304 | 35 | 296 | 0.0 | 0.0 | 0.00 | 0.00 | 0.00 | 73 | 1011.0 |
| 20260503021747 | 36 | 296 | 0.0 | 0.0 | 0.00 | 0.00 | 0.00 | 72 | 1011.0 |
| 20260503021245 | 36 | 296 | 0.0 | 0.0 | 0.00 | 0.00 | 0.00 | 72 | 1011.0 |
| 20260503020747 | 36 | 296 | 0.0 | 1.0 | 0.00 | 0.00 | 0.00 | 71 | 1011.0 |
| 20260503020244 | 37 | 296 | 0.0 | 1.0 | 0.00 | 0.00 | 0.00 | 70 | 1011.0 |
| 20260503015739 | 37 | 296 | 0.0 | 2.0 | 0.00 | 0.00 | 0.00 | 69 | 1011.0 |
| 20260503015232 | 37 | 296 | 1.0 | 2.0 | 0.00 | 0.00 | 0.00 | 69 | 1011.1 |
| 20260503014704 | 38 | 296 | 1.0 | 2.0 | 0.00 | 0.00 | 0.00 | 67 | 1011.1 |
| 20260503014203 | 38 | 296 | 1.0 | 2.0 | 0.00 | 0.00 | 0.00 | 66 | 1011.1 |
| 20260503013652 | 39 | 296 | 0.0 | 1.0 | 0.00 | 0.00 | 0.00 | 65 | 1011.2 |
| 20260503013441 | 39 | 300 | 0.0 | 0.0 | 0.00 | 0.00 | 0.00 | 62 | 1011.2 |
| 20260503012930 | 40 | 300 | 0.0 | 0.0 | 0.00 | 0.00 | 0.00 | 61 | 1011.2 |
| 20260503012051 | 40 | 300 | 0.0 | 0.0 | 0.00 | 0.00 | 0.00 | 61 | 1011.3 |
| 20260503011834 | 41 | 300 | 0.0 | 0.0 | 0.00 | 0.00 | 0.00 | 60 | 1011.3 |
| 20260503011036 | 42 | 300 | 0.0 | 0.0 | 0.00 | 0.00 | 0.00 | 56 | 1011.4 |
| 20260503010453 | 42 | 300 | 0.0 | 0.0 | 0.00 | 0.00 | 0.00 | 52 | 1011.4 |
| 20260503005949 | 43 | 300 | 0.0 | 0.0 | 0.00 | 0.00 | 0.00 | 51 | 1011.5 |
| 20260503005450 | 44 | 300 | 0.0 | 0.0 | 0.00 | 0.00 | 0.00 | 50 | 1011.5 |
| 20260503004949 | 45 | 300 | 0.0 | 0.0 | 0.00 | 0.00 | 0.00 | 48 | 1011.6 |
| 20260503004742 | 46 | 300 | 0.0 | 0.0 | 0.00 | 0.00 | 0.00 | 47 | 1011.6 |
| 20260503003934 | 46 | 300 | 0.0 | 0.0 | 0.00 | 0.00 | 0.00 | 44 | 1011.7 |
| 20260503003415 | 47 | 300 | 0.0 | 0.0 | 0.00 | 0.00 | 0.00 | 42 | 1011.7 |
| 20260503002900 | 47 | 300 | 0.0 | 0.0 | 0.00 | 0.00 | 0.00 | 40 | 1011.8 |
| 20260503002627 | 48 | 300 | 0.0 | 1.0 | 0.00 | 0.00 | 0.00 | 41 | 1011.8 |
| 20260503001816 | 49 | 300 | 0.0 | 4.0 | 0.00 | 0.00 | 0.00 | 40 | 1011.9 |
| 20260503001304 | 49 | 300 | 0.0 | 4.0 | 0.00 | 0.00 | 0.00 | 38 | 1011.9 |
| 20260503000759 | 50 | 277 | 0.0 | 3.0 | 0.00 | 0.00 | 0.00 | 38 | 1012.0 |
| 20260503000545 | 51 | 263 | 1.0 | 3.0 | 0.00 | 0.00 | 0.00 | 35 | 1012.0 |
| 20260502235751 | 51 | 257 | 0.0 | 3.0 | 0.00 | 0.00 | 0.00 | 34 | 1012.2 |
| 20260502235304 | 51 | 36 | 0.0 | 2.0 | 0.00 | 0.00 | 0.00 | 35 | 1012.2 |
| 20260502234752 | 51 | 36 | 1.0 | 4.0 | 0.00 | 0.00 | 0.00 | 35 | 1012.1 |
| 20260502234249 | 51 | 38 | 1.0 | 6.0 | 0.00 | 0.00 | 0.00 | 33 | 1012.1 |
| 20260502234124 | 51 | 329 | 2.0 | 6.0 | 0.00 | 0.00 | 0.00 | 33 | 1012.1 |
| 20260502233223 | 52 | 300 | 1.0 | 5.0 | 0.00 | 0.00 | 0.00 | 31 | 1012.2 |
| 20260502232709 | 52 | 298 | 1.0 | 4.0 | 0.00 | 0.00 | 0.00 | 33 | 1012.3 |
| 20260502232200 | 52 | 348 | 1.0 | 4.0 | 0.00 | 0.00 | 0.00 | 31 | 1012.3 |
| 20260502231700 | 52 | 344 | 1.0 | 4.0 | 0.00 | 0.00 | 0.00 | 33 | 1012.3 |
| 20260502231201 | 52 | 300 | 2.0 | 8.0 | 0.00 | 0.00 | 0.00 | 34 | 1012.5 |
| 20260502230952 | 51 | 300 | 3.0 | 8.0 | 0.00 | 0.00 | 0.00 | 32 | 1012.4 |
| 20260502230455 | 51 | 296 | 3.0 | 7.0 | 0.00 | 0.00 | 0.00 | 32 | 1012.4 |
| 20260502225653 | 51 | 168 | 3.0 | 7.0 | 0.00 | 0.00 | 0.00 | 33 | 1012.5 |
| 20260502225153 | 52 | 217 | 3.0 | 7.0 | 0.00 | 0.00 | 0.00 | 33 | 1012.6 |
| 20260502224652 | 52 | 255 | 3.0 | 7.0 | 0.00 | 0.00 | 0.00 | 32 | 1012.6 |
| 20260502224152 | 52 | 24 | 3.0 | 12.0 | 0.00 | 0.00 | 0.00 | 31 | 1012.6 |
| 20260502223651 | 53 | 301 | 2.0 | 12.0 | 0.00 | 0.00 | 0.00 | 30 | 1012.6 |
| 20260502223448 | 53 | 296 | 1.0 | 4.0 | 0.00 | 0.00 | 0.00 | 33 | 1012.7 |
| 20260502222906 | 53 | 327 | 2.0 | 5.0 | 0.00 | 0.00 | 0.00 | 33 | 1012.6 |
| 20260502222105 | 53 | 298 | 2.0 | 6.0 | 0.00 | 0.00 | 0.00 | 32 | 1012.5 |
| 20260502221603 | 52 | 348 | 2.0 | 8.0 | 0.00 | 0.00 | 0.00 | 34 | 1012.5 |
| 20260502221057 | 52 | 336 | 3.0 | 9.0 | 0.00 | 0.00 | 0.00 | 32 | 1012.6 |
| 20260502220553 | 52 | 327 | 4.0 | 9.0 | 0.00 | 0.00 | 0.00 | 32 | 1012.6 |
| 20260502220059 | 53 | 212 | 3.0 | 6.0 | 0.00 | 0.00 | 0.00 | 32 | 1012.6 |
| 20260502215556 | 53 | 339 | 3.0 | 9.0 | 0.00 | 0.00 | 0.00 | 30 | 1012.6 |
| 20260502215052 | 53 | 242 | 3.0 | 9.0 | 0.00 | 0.00 | 0.00 | 32 | 1012.6 |
| 20260502214553 | 53 | 229 | 2.0 | 5.0 | 0.00 | 0.00 | 0.00 | 33 | 1012.7 |
| 20260502214040 | 53 | 321 | 2.0 | 5.0 | 0.00 | 0.00 | 0.00 | 30 | 1012.8 |
| 20260502213543 | 53 | 355 | 2.0 | 4.0 | 0.00 | 0.00 | 0.00 | 30 | 1012.8 |
| 20260502213011 | 53 | 315 | 2.0 | 9.0 | 0.00 | 0.00 | 0.00 | 30 | 1012.7 |
| 20260502212512 | 52 | 348 | 3.0 | 9.0 | 0.00 | 0.00 | 0.00 | 30 | 1012.5 |
| 20260502212011 | 52 | 325 | 4.0 | 9.0 | 0.00 | 0.00 | 0.00 | 30 | 1012.5 |
| 20260502211509 | 52 | 248 | 4.0 | 9.0 | 0.00 | 0.00 | 0.00 | 29 | 1012.5 |
| 20260502211009 | 52 | 268 | 3.0 | 13.0 | 0.00 | 0.00 | 0.00 | 31 | 1012.5 |
| 20260502210509 | 52 | 338 | 5.0 | 13.0 | 0.00 | 0.00 | 0.00 | 30 | 1012.5 |
| 20260502210008 | 52 | 257 | 4.0 | 11.0 | 0.00 | 0.00 | 0.00 | 31 | 1012.5 |
| 20260502205508 | 53 | 275 | 2.0 | 7.0 | 0.00 | 0.00 | 0.00 | 32 | 1012.6 |
| 20260502205008 | 53 | 233 | 2.0 | 4.0 | 0.00 | 0.00 | 0.00 | 30 | 1012.6 |
| 20260502204820 | 52 | 36 | 3.0 | 11.0 | 0.00 | 0.00 | 0.00 | 33 | 1012.6 |
| 20260502204301 | 52 | 42 | 4.0 | 11.0 | 0.00 | 0.00 | 0.00 | 32 | 1012.6 |
| 20260502203817 | 53 | 261 | 3.0 | 12.0 | 0.00 | 0.00 | 0.00 | 30 | 1012.6 |
| 20260502203004 | 53 | 290 | 3.0 | 12.0 | 0.00 | 0.00 | 0.00 | 33 | 1012.8 |
| 20260502202504 | 52 | 278 | 4.0 | 12.0 | 0.00 | 0.00 | 0.00 | 32 | 1012.7 |
| 20260502201950 | 52 | 255 | 4.0 | 11.0 | 0.00 | 0.00 | 0.00 | 31 | 1012.7 |
| 20260502201759 | 52 | 238 | 4.0 | 11.0 | 0.00 | 0.00 | 0.00 | 30 | 1012.9 |
| 20260502200951 | 52 | 301 | 4.0 | 11.0 | 0.00 | 0.00 | 0.00 | 33 | 1012.9 |
| 20260502200503 | 52 | 215 | 4.0 | 11.0 | 0.00 | 0.00 | 0.00 | 34 | 1012.9 |